Regional Weather Roundup
Issued by NWS Sioux Falls, SD

Home | Current Version | Previous Version | Text Only | Print | Product List | Glossary Off
Versions: 1 2 3 4 5 6 7 8 9 10 11 12 13 14 15 16 17 18 19 20 21 22 23 24 25 26 27 28 29 30 31 32 33 34 35 36 37 38 39 40 41 42 43 44 45 46 47 48 49 50

000
ASUS43 KFSD 240210
RWRFSD

WEATHER ROUNDUP FOR SE SOUTH DAKOTA/SW MINNESOTA/NW IOWA
NATIONAL WEATHER SERVICE SIOUX FALLS SD
900 PM CDT SAT JUL 23 2016

NOTE: "FAIR" INDICATES FEW OR NO CLOUDS BELOW 12,000 FEET WITH NO
SIGNIFICANT WEATHER AND OR OBSTRUCTIONS TO VISIBILITY.


SDZ038>040-050-052>070-240300-
SOUTHEAST SOUTH DAKOTA

CITY           SKY/WX    TMP DP  RH WIND       PRES   REMARKS
BROOKINGS      CLEAR     84  78  82 S5        29.75S HX  95
CHAMBERLAIN    CLEAR     86  60  41 N16G23    29.84R
HURON          CLEAR     82  71  69 N13       29.77R
MADISON        FAIR      82  82 100 S6        29.76S HX  97
MITCHELL       CLEAR     86  75  69 N17       29.76R HX  95
SIOUX FALLS    PTCLDY    87  73  62 SW5       29.75R
WINNER         FAIR      84  57  39 N9        29.88R
YANKTON        CLEAR     86  75  70 SE3       29.72S HX  95
$$

MNZ071-072-080-081-089-090-097-098-240300-
SOUTHWEST MINNESOTA

CITY           SKY/WX    TMP DP  RH WIND       PRES   REMARKS
FAIRMONT       CLEAR     79  77  94 E6        29.77S
JACKSON        CLEAR     81  73  78 S5        29.79S
LUVERNE        CLEAR     81  73  78 S6        29.76S
MARSHALL       PTCLDY    84  79  85 SE7       29.73S HX  96
MONTEVIDEO     CLEAR     79  77  94 S12       29.73F
PIPESTONE      CLEAR     82  79  89 S3        29.77S
REDWOOD FALLS  CLEAR     82  76  81 S8        29.73F
TRACY          PTCLDY    84  79  85 S7        29.75F HX  95
WINDOM         CLEAR     82  75  78 S5        29.77S
WORTHINGTON    CLEAR     81  77  88 S6        29.79R
$$

IAZ001>003-012>014-020>022-031-032-NEZ013-014-SDZ071-240300-
NORTHWEST IOWA

CITY           SKY/WX    TMP DP  RH WIND       PRES   REMARKS
CHEROKEE       CLOUDY    82  79  89 S5        29.77R
DENISON        CLOUDY    82  79  89 S9        29.77S
ESTHERVILLE    CLEAR     79  77  94 S3        29.77S
LE MARS        CLEAR     84  77  79 S7        29.76R
SHELDON        PTCLDY    81  79  94 S7        29.76S
SIOUX CITY     CLOUDY    86  77  74 S8        29.75R HX  97
SPENCER        CLEAR     80  76  87 SE6       29.77F
STORM LAKE     CLOUDY    81  77  89 S8        29.79S
$$

ABBREVIATIONS USED IN REMARKS
   TC - TEMPERATURE IN CELSIUS
  WCI - WIND CHILL INDEX
   HX - HEAT INDEX
  VSB - VISIBILITY




USA.gov is the U.S. government's official web portal to all federal, state and local government web resources and services.